KLM8AY EINN-EIKN

Flight info

Callsign KLM8AY
Flight time 0h 21m
Altitude 15000
Route MOMIN3B MOMIN DCT QIZOH
Aircraft B737/M-SDE2E3FGHIRWXY/LB1

Departure

Time 2026-04-27 19:14
Airport Shannon Airport (EINN)

Arrival

Time 2026-04-27 19:35
Airport Ireland West Airport Knock (EIKN)
Time Latitude Longitude Altitude Speed Heading
2026-04-27 19:00 52.69389 -8.92410 43 ft 0 kts 186°
2026-04-27 19:07 52.69396 -8.92409 43 ft 2 kts 186°
2026-04-27 19:07 52.69412 -8.92406 42 ft 2 kts 186°
2026-04-27 19:08 52.69428 -8.92403 42 ft 2 kts 186°
2026-04-27 19:08 52.69445 -8.92402 42 ft 2 kts 159°
2026-04-27 19:08 52.69456 -8.92415 42 ft 1 kts 105°
2026-04-27 19:08 52.69456 -8.92420 42 ft 0 kts 102°
2026-04-27 19:09 52.69456 -8.92415 42 ft 1 kts 94°
2026-04-27 19:09 52.69466 -8.92383 41 ft 6 kts 63°
2026-04-27 19:10 52.69491 -8.92293 40 ft 11 kts 75°
2026-04-27 19:10 52.69520 -8.92149 38 ft 16 kts 46°
2026-04-27 19:10 52.69616 -8.92030 39 ft 19 kts 35°
2026-04-27 19:10 52.69692 -8.91942 38 ft 20 kts 35°
2026-04-27 19:11 52.69834 -8.91744 36 ft 16 kts 84°
2026-04-27 19:11 52.69777 -8.91593 36 ft 15 kts 123°
2026-04-27 19:11 52.69719 -8.91448 34 ft 16 kts 123°
2026-04-27 19:11 52.69713 -8.91289 33 ft 16 kts 37°
2026-04-27 19:12 52.69826 -8.91216 33 ft 19 kts 19°
2026-04-27 19:12 52.69956 -8.91142 31 ft 21 kts 19°
2026-04-27 19:12 52.70098 -8.91063 31 ft 22 kts 18°
2026-04-27 19:12 52.70251 -8.90979 29 ft 24 kts 18°
2026-04-27 19:13 52.70414 -8.90891 28 ft 25 kts 18°
2026-04-27 19:13 52.70584 -8.90798 29 ft 26 kts 18°
2026-04-27 19:13 52.70752 -8.90697 26 ft 25 kts 20°
2026-04-27 19:13 52.70906 -8.90706 26 ft 23 kts 324°
2026-04-27 19:14 52.70930 -8.90926 27 ft 24 kts 234°
2026-04-27 19:14 52.70679 -8.91461 27 ft 100 kts 232°
2026-04-27 19:14 52.70105 -8.92682 66 ft 164 kts 233°
2026-04-27 19:14 52.69346 -8.94173 860 ft 170 kts 232°
2026-04-27 19:15 52.68744 -8.95887 1558 ft 183 kts 269°
2026-04-27 19:15 52.69085 -8.97804 2444 ft 178 kts 304°
2026-04-27 19:15 52.69702 -8.99643 3284 ft 188 kts 300°
2026-04-27 19:15 52.70307 -9.01670 3951 ft 203 kts 298°
2026-04-27 19:16 52.70906 -9.03821 4728 ft 209 kts 297°
2026-04-27 19:16 52.71106 -9.04561 5056 ft 209 kts 296°
2026-04-27 19:16 52.72080 -9.08227 6641 ft 211 kts 298°
2026-04-27 19:16 52.72963 -9.10105 7473 ft 207 kts 327°
2026-04-27 19:17 52.74202 -9.11269 8328 ft 208 kts 337°
2026-04-27 19:17 52.75531 -9.12271 9172 ft 211 kts 338°
2026-04-27 19:17 52.76888 -9.13264 10015 ft 214 kts 339°
2026-04-27 19:17 52.78335 -9.13833 10815 ft 215 kts 355°
2026-04-27 19:18 52.79824 -9.14063 11644 ft 216 kts 356°
2026-04-27 19:18 52.81328 -9.14289 12473 ft 218 kts 355°
2026-04-27 19:18 52.82843 -9.14522 13320 ft 219 kts 355°
2026-04-27 19:18 52.84372 -9.14764 14173 ft 222 kts 355°
2026-04-27 19:19 52.85916 -9.15015 14880 ft 224 kts 355°
2026-04-27 19:19 52.86943 -9.15185 15108 ft 224 kts 355°
2026-04-27 19:19 52.88499 -9.15142 15334 ft 229 kts 13°
2026-04-27 19:19 52.90113 -9.14303 15404 ft 259 kts 17°
2026-04-27 19:20 52.92554 -9.12946 15415 ft 300 kts 17°
2026-04-27 19:20 52.94630 -9.11795 15398 ft 328 kts 17°
2026-04-27 19:20 52.96882 -9.10556 15408 ft 353 kts 17°
2026-04-27 19:20 52.98469 -9.09685 15396 ft 368 kts 17°
2026-04-27 19:21 53.00961 -9.08321 15398 ft 383 kts 17°
2026-04-27 19:21 53.03505 -9.06913 15388 ft 387 kts 17°
2026-04-27 19:21 53.06050 -9.05494 15378 ft 385 kts 17°
2026-04-27 19:21 53.08592 -9.04071 15391 ft 385 kts 17°
2026-04-27 19:22 53.11142 -9.02642 15378 ft 386 kts 17°
2026-04-27 19:22 53.13686 -9.01213 15387 ft 386 kts 17°
2026-04-27 19:22 53.16233 -8.99781 15388 ft 386 kts 17°
2026-04-27 19:22 53.18782 -8.98347 15392 ft 386 kts 17°
2026-04-27 19:23 53.21297 -8.96810 15388 ft 386 kts 22°
2026-04-27 19:23 53.23702 -8.94791 15399 ft 387 kts 26°
2026-04-27 19:23 53.26063 -8.92645 15397 ft 387 kts 27°
2026-04-27 19:23 53.28424 -8.90461 15394 ft 387 kts 27°
2026-04-27 19:24 53.30742 -8.88300 15394 ft 387 kts 27°
2026-04-27 19:24 53.33101 -8.86093 15397 ft 387 kts 27°
2026-04-27 19:24 53.35445 -8.83894 15396 ft 387 kts 27°
2026-04-27 19:24 53.37788 -8.81694 15365 ft 383 kts 27°
2026-04-27 19:25 53.40091 -8.79524 14886 ft 376 kts 27°
2026-04-27 19:25 53.42364 -8.77384 14078 ft 373 kts 27°
2026-04-27 19:25 53.44627 -8.75259 13035 ft 373 kts 27°
2026-04-27 19:25 53.46889 -8.73141 12082 ft 367 kts 27°
2026-04-27 19:26 53.49079 -8.71092 11070 ft 355 kts 27°
2026-04-27 19:26 53.51215 -8.69096 10057 ft 347 kts 27°
2026-04-27 19:26 53.53300 -8.67152 9019 ft 341 kts 27°
2026-04-27 19:26 53.55378 -8.65221 8052 ft 337 kts 27°
2026-04-27 19:27 53.57406 -8.63340 7084 ft 329 kts 27°
2026-04-27 19:27 53.59383 -8.61514 6118 ft 322 kts 28°
2026-04-27 19:27 53.61338 -8.59730 5155 ft 316 kts 28°
2026-04-27 19:27 53.63263 -8.58006 4301 ft 308 kts 28°
2026-04-27 19:28 53.65156 -8.56727 4079 ft 283 kts
2026-04-27 19:28 53.67058 -8.56603 3945 ft 267 kts 360°
2026-04-27 19:28 53.68871 -8.56704 3823 ft 255 kts 359°
2026-04-27 19:28 53.70634 -8.56833 3514 ft 252 kts 359°
2026-04-27 19:29 53.72381 -8.56972 3138 ft 251 kts 359°
2026-04-27 19:29 53.74083 -8.57113 3053 ft 243 kts 359°
2026-04-27 19:29 53.75728 -8.57253 3014 ft 230 kts 358°
2026-04-27 19:29 53.77273 -8.57392 3005 ft 215 kts 358°
2026-04-27 19:30 53.78722 -8.57527 2996 ft 202 kts 358°
2026-04-27 19:30 53.80116 -8.57656 3015 ft 199 kts 359°
2026-04-27 19:30 53.81498 -8.57786 3013 ft 198 kts 358°
2026-04-27 19:30 53.82872 -8.57915 3022 ft 197 kts 358°
2026-04-27 19:31 53.84241 -8.58043 3014 ft 197 kts 359°
2026-04-27 19:31 53.85606 -8.58173 3027 ft 195 kts 358°
2026-04-27 19:31 53.86930 -8.58299 3036 ft 184 kts 359°
2026-04-27 19:31 53.88169 -8.58424 3033 ft 179 kts 358°
2026-04-27 19:32 53.89403 -8.58546 3012 ft 175 kts 358°
2026-04-27 19:32 53.90613 -8.58779 3007 ft 177 kts 342°
2026-04-27 19:32 53.91611 -8.60015 3006 ft 182 kts 324°
2026-04-27 19:32 53.92743 -8.60928 2899 ft 179 kts 343°
2026-04-27 19:33 53.93712 -8.62248 2788 ft 185 kts 297°
2026-04-27 19:33 53.93874 -8.63674 2713 ft 192 kts 266°
2026-04-27 19:33 53.92995 -8.66370 2440 ft 198 kts 235°
2026-04-27 19:33 53.92406 -8.68396 2335 ft 191 kts 257°
2026-04-27 19:34 53.92141 -8.70601 2020 ft 189 kts 266°
2026-04-27 19:34 53.92038 -8.72749 1735 ft 177 kts 268°
2026-04-27 19:34 53.91889 -8.74759 1458 ft 165 kts 260°
2026-04-27 19:34 53.91637 -8.76530 1253 ft 146 kts 263°
2026-04-27 19:35 53.91450 -8.78225 964 ft 146 kts 263°
2026-04-27 19:35 53.91256 -8.79922 731 ft 143 kts 263°
2026-04-27 19:35 53.91078 -8.81450 642 ft 115 kts 259°
2026-04-27 19:35 53.90971 -8.82371 634 ft 26 kts 258°
2026-04-27 19:36 53.91033 -8.82525 630 ft 16 kts 352°